| time (UTC) | temp F | wind direction | speed MPH | gust MPH | rain 1hr in | rain 24hr in | rain mn in | humidity % | barometer mb |
| 20260507105307 | 56 | 273 | 10.0 | 16.0 | 0.00 | 0.04 | 0.00 | 64 | 1015.9 |
| 20260507105005 | 56 | 265 | 10.0 | 19.0 | 0.00 | 0.04 | 0.00 | 64 | 1015.8 |
| 20260507104704 | 56 | 260 | 9.0 | 21.0 | 0.00 | 0.04 | 0.00 | 62 | 1016.0 |
| 20260507104403 | 55 | 262 | 11.0 | 21.0 | 0.00 | 0.04 | 0.00 | 64 | 1015.9 |
| 20260507104103 | 55 | 264 | 13.0 | 21.0 | 0.00 | 0.04 | 0.00 | 65 | 1016.0 |
| 20260507103802 | 55 | 262 | 11.0 | 19.0 | 0.00 | 0.04 | 0.00 | 66 | 1016.0 |
| 20260507103501 | 55 | 259 | 9.0 | 17.0 | 0.00 | 0.04 | 0.00 | 66 | 1015.9 |
| 20260507103200 | 55 | 255 | 10.0 | 17.0 | 0.00 | 0.04 | 0.00 | 65 | 1016.0 |
| 20260507102859 | 56 | 256 | 10.0 | 17.0 | 0.00 | 0.04 | 0.00 | 66 | 1015.9 |
| 20260507102558 | 56 | 248 | 11.0 | 20.0 | 0.00 | 0.04 | 0.00 | 64 | 1015.9 |
| 20260507102257 | 57 | 244 | 11.0 | 20.0 | 0.00 | 0.04 | 0.00 | 64 | 1015.9 |
| 20260507101957 | 56 | 235 | 12.0 | 20.0 | 0.00 | 0.04 | 0.00 | 66 | 1015.9 |
| 20260507101656 | 56 | 247 | 12.0 | 20.0 | 0.00 | 0.04 | 0.00 | 66 | 1015.9 |
| 20260507101355 | 55 | 250 | 10.0 | 19.0 | 0.00 | 0.04 | 0.00 | 69 | 1016.1 |
| 20260507100753 | 55 | 258 | 11.0 | 16.0 | 0.00 | 0.04 | 0.00 | 68 | 1016.0 |
| 20260507100452 | 55 | 265 | 10.0 | 16.0 | 0.00 | 0.04 | 0.00 | 69 | 1016.1 |
| 20260507100151 | 55 | 251 | 10.0 | 15.0 | 0.00 | 0.04 | 0.00 | 70 | 1016.0 |
| 20260507095850 | 55 | 255 | 8.0 | 15.0 | 0.00 | 0.04 | 0.00 | 70 | 1016.0 |
| 20260507095549 | 55 | 269 | 8.0 | 19.0 | 0.00 | 0.04 | 0.00 | 72 | 1016.0 |
| 20260507095248 | 54 | 258 | 10.0 | 19.0 | 0.00 | 0.04 | 0.00 | 74 | 1016.1 |
| 20260507094947 | 54 | 259 | 9.0 | 19.0 | 0.00 | 0.04 | 0.00 | 72 | 1015.9 |
| 20260507094647 | 53 | 244 | 11.0 | 18.0 | 0.00 | 0.04 | 0.00 | 73 | 1016.0 |
| 20260507094346 | 53 | 249 | 10.0 | 20.0 | 0.00 | 0.04 | 0.00 | 73 | 1016.0 |
| 20260507094045 | 53 | 241 | 12.0 | 20.0 | 0.00 | 0.04 | 0.00 | 73 | 1015.9 |
| 20260507093744 | 53 | 242 | 10.0 | 20.0 | 0.00 | 0.04 | 0.00 | 75 | 1015.9 |
| 20260507093443 | 53 | 255 | 9.0 | 16.0 | 0.00 | 0.04 | 0.00 | 74 | 1015.9 |
| 20260507093142 | 52 | 270 | 9.0 | 18.0 | 0.01 | 0.04 | 0.00 | 74 | 1015.9 |
| 20260507092841 | 52 | 261 | 10.0 | 18.0 | 0.01 | 0.04 | 0.00 | 75 | 1015.8 |
| 20260507092540 | 52 | 261 | 11.0 | 18.0 | 0.01 | 0.04 | 0.00 | 75 | 1015.9 |
| 20260507092239 | 52 | 259 | 10.0 | 18.0 | 0.01 | 0.04 | 0.00 | 76 | 1015.9 |
| 20260507091938 | 52 | 244 | 9.0 | 18.0 | 0.01 | 0.04 | 0.00 | 77 | 1015.8 |
| 20260507091337 | 52 | 264 | 10.0 | 16.0 | 0.01 | 0.04 | 0.00 | 77 | 1015.8 |
| 20260507091035 | 52 | 240 | 7.0 | 14.0 | 0.01 | 0.04 | 0.00 | 76 | 1015.6 |
| 20260507090735 | 52 | 244 | 9.0 | 14.0 | 0.00 | 0.03 | 0.00 | 73 | 1015.7 |
| 20260507090434 | 52 | 248 | 10.0 | 14.0 | 0.00 | 0.03 | 0.00 | 73 | 1015.6 |
| 20260507090133 | 52 | 252 | 9.0 | 18.0 | 0.00 | 0.03 | 0.00 | 73 | 1015.6 |
| 20260507085832 | 52 | 258 | 8.0 | 23.0 | 0.00 | 0.03 | 0.00 | 72 | 1015.7 |
| 20260507085531 | 52 | 263 | 11.0 | 23.0 | 0.00 | 0.03 | 0.00 | 71 | 1015.6 |
| 20260507085230 | 53 | 253 | 13.0 | 23.0 | 0.00 | 0.03 | 0.00 | 70 | 1015.5 |
| 20260507084929 | 53 | 256 | 13.0 | 21.0 | 0.00 | 0.03 | 0.00 | 71 | 1015.5 |
| 20260507084628 | 53 | 259 | 11.0 | 21.0 | 0.00 | 0.03 | 0.00 | 71 | 1015.5 |
| 20260507084313 | 53 | 258 | 13.0 | 21.0 | 0.00 | 0.03 | 0.00 | 71 | 1015.5 |
| 20260507084012 | 53 | 253 | 15.0 | 21.0 | 0.00 | 0.03 | 0.00 | 68 | 1015.4 |
| 20260507083711 | 53 | 251 | 14.0 | 22.0 | 0.00 | 0.03 | 0.00 | 68 | 1015.4 |
| 20260507083410 | 53 | 253 | 14.0 | 22.0 | 0.00 | 0.03 | 0.00 | 67 | 1015.4 |
| 20260507083109 | 53 | 242 | 16.0 | 22.0 | 0.00 | 0.03 | 0.00 | 66 | 1015.3 |
| 20260507082808 | 52 | 240 | 13.0 | 21.0 | 0.00 | 0.03 | 0.00 | 67 | 1015.3 |
| 20260507082507 | 52 | 240 | 13.0 | 21.0 | 0.00 | 0.03 | 0.00 | 68 | 1015.3 |
| 20260507082206 | 52 | 259 | 12.0 | 22.0 | 0.00 | 0.03 | 0.00 | 67 | 1015.2 |
| 20260507081905 | 52 | 246 | 13.0 | 22.0 | 0.00 | 0.03 | 0.00 | 68 | 1015.3 |
| 20260507081605 | 51 | 254 | 12.0 | 22.0 | 0.00 | 0.03 | 0.00 | 68 | 1015.1 |
| 20260507081304 | 51 | 257 | 14.0 | 21.0 | 0.00 | 0.03 | 0.00 | 68 | 1015.1 |
| 20260507081003 | 51 | 264 | 13.0 | 23.0 | 0.00 | 0.03 | 0.00 | 69 | 1015.1 |
| 20260507080702 | 51 | 247 | 15.0 | 24.0 | 0.00 | 0.03 | 0.00 | 69 | 1015.1 |
| 20260507075759 | 51 | 256 | 14.0 | 23.0 | 0.00 | 0.03 | 0.00 | 67 | 1014.9 |
| 20260507075458 | 51 | 268 | 13.0 | 23.0 | 0.00 | 0.03 | 0.00 | 67 | 1015.0 |
| 20260507075157 | 51 | 238 | 12.0 | 25.0 | 0.00 | 0.03 | 0.00 | 67 | 1014.9 |
| 20260507074856 | 51 | 249 | 14.0 | 30.0 | 0.00 | 0.03 | 0.00 | 66 | 1014.9 |
| 20260507074556 | 51 | 264 | 17.0 | 30.0 | 0.00 | 0.03 | 0.00 | 65 | 1014.9 |
| 20260507074255 | 52 | 253 | 18.0 | 30.0 | 0.00 | 0.03 | 0.00 | 65 | 1014.8 |
| 20260507073954 | 52 | 243 | 14.0 | 21.0 | 0.00 | 0.03 | 0.00 | 67 | 1014.8 |
| 20260507073653 | 52 | 254 | 11.0 | 19.0 | 0.00 | 0.03 | 0.00 | 71 | 1014.7 |
| 20260507073352 | 51 | 260 | 11.0 | 20.0 | 0.00 | 0.03 | 0.00 | 72 | 1014.7 |
| 20260507073051 | 52 | 254 | 11.0 | 20.0 | 0.00 | 0.03 | 0.00 | 70 | 1014.6 |
| 20260507072750 | 51 | 251 | 13.0 | 21.0 | 0.00 | 0.03 | 0.00 | 71 | 1014.6 |
| 20260507072449 | 51 | 259 | 13.0 | 21.0 | 0.00 | 0.03 | 0.00 | 71 | 1014.7 |
| 20260507072148 | 51 | 262 | 14.0 | 21.0 | 0.00 | 0.03 | 0.00 | 72 | 1014.6 |
| 20260507071848 | 51 | 260 | 13.0 | 22.0 | 0.00 | 0.03 | 0.00 | 71 | 1014.6 |
| 20260507071547 | 51 | 246 | 11.0 | 22.0 | 0.00 | 0.03 | 0.00 | 73 | 1014.6 |
| 20260507071246 | 51 | 237 | 14.0 | 22.0 | 0.00 | 0.03 | 0.00 | 72 | 1014.5 |
| 20260507070942 | 52 | 251 | 13.0 | 21.0 | 0.00 | 0.03 | 0.00 | 71 | 1014.5 |
| 20260507070639 | 52 | 260 | 14.0 | 23.0 | 0.00 | 0.03 | 0.00 | 71 | 1014.5 |
| 20260507070338 | 52 | 245 | 16.0 | 23.0 | 0.00 | 0.03 | 0.00 | 71 | 1014.4 |
| 20260507070037 | 52 | 242 | 16.0 | 25.0 | 0.00 | 0.03 | 0.00 | 70 | 1014.5 |
| 20260507065736 | 53 | 246 | 12.0 | 25.0 | 0.00 | 0.03 | 0.00 | 70 | 1014.4 |
| 20260507065435 | 52 | 249 | 16.0 | 30.0 | 0.00 | 0.03 | 0.00 | 70 | 1014.4 |
| 20260507065135 | 52 | 245 | 16.0 | 30.0 | 0.00 | 0.03 | 0.00 | 71 | 1014.4 |
| 20260507064834 | 52 | 233 | 19.0 | 30.0 | 0.00 | 0.03 | 0.00 | 72 | 1014.3 |
| 20260507064533 | 52 | 240 | 16.0 | 23.0 | 0.00 | 0.03 | 0.00 | 72 | 1014.3 |
| 20260507064232 | 51 | 233 | 18.0 | 23.0 | 0.00 | 0.03 | 0.00 | 73 | 1014.3 |
| 20260507063931 | 51 | 234 | 14.0 | 21.0 | 0.00 | 0.03 | 0.00 | 73 | 1014.3 |
| 20260507063630 | 51 | 232 | 12.0 | 21.0 | 0.00 | 0.03 | 0.00 | 74 | 1014.3 |
| 20260507063329 | 51 | 232 | 14.0 | 22.0 | 0.00 | 0.03 | 0.00 | 73 | 1014.3 |
| 20260507063028 | 51 | 251 | 14.0 | 27.0 | 0.00 | 0.03 | 0.00 | 73 | 1014.2 |
| 20260507062727 | 51 | 254 | 14.0 | 27.0 | 0.00 | 0.03 | 0.00 | 73 | 1014.2 |
| 20260507062426 | 51 | 254 | 15.0 | 27.0 | 0.00 | 0.03 | 0.00 | 73 | 1014.3 |
| 20260507062125 | 51 | 249 | 13.0 | 22.0 | 0.00 | 0.03 | 0.00 | 73 | 1014.2 |
| 20260507061824 | 51 | 242 | 13.0 | 25.0 | 0.00 | 0.03 | 0.00 | 74 | 1014.2 |
| 20260507060922 | 51 | 234 | 15.0 | 22.0 | 0.00 | 0.03 | 0.00 | 73 | 1014.0 |
| 20260507060621 | 51 | 231 | 14.0 | 23.0 | 0.00 | 0.03 | 0.00 | 75 | 1014.0 |
| 20260507060320 | 51 | 256 | 13.0 | 23.0 | 0.00 | 0.03 | 0.00 | 74 | 1014.0 |
| 20260507060019 | 50 | 239 | 14.0 | 23.0 | 0.00 | 0.03 | 0.00 | 74 | 1014.0 |
| 20260507055718 | 50 | 246 | 12.0 | 21.0 | 0.00 | 0.03 | 0.00 | 73 | 1014.0 |
| 20260507055418 | 51 | 246 | 12.0 | 22.0 | 0.00 | 0.03 | 0.00 | 74 | 1014.0 |
| 20260507055117 | 51 | 248 | 14.0 | 22.0 | 0.00 | 0.03 | 0.00 | 73 | 1013.9 |
| 20260507054816 | 51 | 238 | 15.0 | 22.0 | 0.00 | 0.03 | 0.00 | 73 | 1014.0 |
| 20260507054515 | 51 | 246 | 13.0 | 22.0 | 0.00 | 0.03 | 0.00 | 73 | 1014.0 |
| 20260507054214 | 50 | 242 | 14.0 | 22.0 | 0.00 | 0.03 | 0.00 | 74 | 1013.8 |
| 20260507053913 | 50 | 261 | 12.0 | 21.0 | 0.00 | 0.03 | 0.00 | 73 | 1013.9 |
| 20260507053612 | 50 | 239 | 14.0 | 21.0 | 0.00 | 0.03 | 0.00 | 75 | 1013.9 |
| 20260507053311 | 49 | 236 | 12.0 | 19.0 | 0.00 | 0.03 | 0.00 | 75 | 1013.8 |
| 20260507053010 | 49 | 237 | 12.0 | 18.0 | 0.01 | 0.03 | 0.00 | 75 | 1013.6 |
| 20260507052709 | 49 | 238 | 12.0 | 18.0 | 0.01 | 0.03 | 0.00 | 75 | 1013.6 |
| 20260507052408 | 49 | 235 | 12.0 | 18.0 | 0.01 | 0.03 | 0.00 | 76 | 1013.5 |
| 20260507052107 | 49 | 241 | 12.0 | 21.0 | 0.00 | 0.02 | 0.00 | 76 | 1013.6 |
| 20260507051806 | 49 | 255 | 12.0 | 21.0 | 0.00 | 0.02 | 0.00 | 76 | 1013.5 |
| 20260507051505 | 49 | 242 | 13.0 | 22.0 | 0.00 | 0.02 | 0.00 | 76 | 1013.5 |
| 20260507051204 | 49 | 245 | 12.0 | 22.0 | 0.00 | 0.02 | 0.00 | 76 | 1013.5 |
| 20260507050904 | 48 | 237 | 16.0 | 22.0 | 0.00 | 0.02 | 0.00 | 77 | 1013.3 |
| 20260507050603 | 48 | 241 | 14.0 | 21.0 | 0.00 | 0.02 | 0.00 | 77 | 1013.3 |
| 20260507050302 | 48 | 242 | 14.0 | 20.0 | 0.00 | 0.02 | 0.00 | 78 | 1013.4 |
| 20260507050001 | 48 | 233 | 13.0 | 18.0 | 0.00 | 0.02 | 0.00 | 78 | 1013.4 |
| 20260507045700 | 48 | 237 | 12.0 | 18.0 | 0.00 | 0.02 | 0.00 | 78 | 1013.3 |
| 20260507045359 | 48 | 244 | 10.0 | 18.0 | 0.00 | 0.02 | 0.00 | 79 | 1013.3 |
| 20260507045058 | 48 | 249 | 9.0 | 16.0 | 0.00 | 0.02 | 0.00 | 79 | 1013.4 |
| 20260507044757 | 48 | 233 | 10.0 | 16.0 | 0.00 | 0.02 | 0.00 | 80 | 1013.3 |
| 20260507044457 | 47 | 243 | 10.0 | 16.0 | 0.00 | 0.02 | 0.00 | 80 | 1013.3 |
| 20260507044156 | 47 | 235 | 11.0 | 16.0 | 0.00 | 0.02 | 0.00 | 80 | 1013.3 |
| 20260507043855 | 47 | 236 | 9.0 | 14.0 | 0.00 | 0.02 | 0.00 | 80 | 1013.3 |
| 20260507043554 | 47 | 243 | 9.0 | 13.0 | 0.00 | 0.02 | 0.00 | 80 | 1013.2 |
| 20260507043253 | 47 | 235 | 9.0 | 12.0 | 0.00 | 0.02 | 0.00 | 81 | 1013.1 |
| 20260507042952 | 47 | 239 | 9.0 | 12.0 | 0.00 | 0.02 | 0.00 | 80 | 1013.1 |
| 20260507042651 | 47 | 230 | 8.0 | 12.0 | 0.00 | 0.02 | 0.00 | 80 | 1013.1 |
| 20260507042351 | 47 | 236 | 9.0 | 14.0 | 0.00 | 0.02 | 0.00 | 80 | 1013.1 |
| 20260507042050 | 47 | 234 | 8.0 | 15.0 | 0.00 | 0.02 | 0.00 | 80 | 1013.0 |
| 20260507041749 | 47 | 234 | 10.0 | 15.0 | 0.00 | 0.02 | 0.00 | 80 | 1013.0 |
| 20260507041448 | 47 | 235 | 9.0 | 15.0 | 0.00 | 0.02 | 0.00 | 80 | 1013.0 |
| 20260507041147 | 47 | 245 | 8.0 | 12.0 | 0.00 | 0.02 | 0.00 | 80 | 1013.0 |
| 20260507040846 | 47 | 239 | 7.0 | 12.0 | 0.00 | 0.02 | 0.00 | 80 | 1012.9 |
| 20260507040545 | 47 | 249 | 6.0 | 12.0 | 0.00 | 0.02 | 0.00 | 80 | 1012.8 |
| 20260507040245 | 47 | 234 | 7.0 | 12.0 | 0.00 | 0.02 | 0.00 | 80 | 1013.0 |
| 20260507035944 | 47 | 231 | 8.0 | 12.0 | 0.00 | 0.02 | 0.00 | 80 | 1012.9 |
| 20260507035643 | 47 | 238 | 7.0 | 12.0 | 0.00 | 0.02 | 0.00 | 80 | 1012.9 |
| 20260507035342 | 47 | 253 | 6.0 | 13.0 | 0.00 | 0.02 | 0.00 | 80 | 1012.8 |
| 20260507035041 | 47 | 241 | 8.0 | 13.0 | 0.00 | 0.02 | 0.00 | 80 | 1012.8 |
| 20260507034740 | 47 | 239 | 8.0 | 13.0 | 0.00 | 0.02 | 0.00 | 80 | 1012.8 |
| 20260507034437 | 47 | 242 | 7.0 | 12.0 | 0.00 | 0.02 | 0.00 | 80 | 1012.8 |
| 20260507034136 | 47 | 230 | 9.0 | 12.0 | 0.00 | 0.02 | 0.00 | 80 | 1012.8 |
| 20260507033835 | 47 | 233 | 8.0 | 11.0 | 0.00 | 0.02 | 0.00 | 80 | 1012.6 |
| 20260507033534 | 47 | 240 | 6.0 | 12.0 | 0.00 | 0.02 | 0.00 | 80 | 1012.7 |
| 20260507033233 | 47 | 236 | 8.0 | 12.0 | 0.00 | 0.02 | 0.00 | 80 | 1012.6 |
| 20260507032933 | 47 | 236 | 8.0 | 12.0 | 0.00 | 0.02 | 0.00 | 80 | 1012.6 |
| 20260507032632 | 47 | 237 | 8.0 | 12.0 | 0.00 | 0.02 | 0.00 | 80 | 1012.6 |
| 20260507032331 | 47 | 233 | 9.0 | 13.0 | 0.00 | 0.02 | 0.00 | 80 | 1012.6 |
| 20260507032030 | 47 | 231 | 9.0 | 13.0 | 0.00 | 0.02 | 0.00 | 80 | 1012.6 |
| 20260507031729 | 47 | 234 | 9.0 | 13.0 | 0.00 | 0.02 | 0.00 | 80 | 1012.5 |
| 20260507031428 | 47 | 243 | 7.0 | 15.0 | 0.00 | 0.02 | 0.00 | 80 | 1012.5 |
| 20260507031127 | 47 | 231 | 10.0 | 16.0 | 0.00 | 0.02 | 0.00 | 80 | 1012.4 |
| 20260507030826 | 47 | 240 | 11.0 | 16.0 | 0.00 | 0.02 | 0.00 | 80 | 1012.6 |
| 20260507030526 | 47 | 239 | 12.0 | 16.0 | 0.00 | 0.02 | 0.00 | 80 | 1012.6 |
| 20260507030225 | 47 | 230 | 11.0 | 15.0 | 0.00 | 0.02 | 0.00 | 80 | 1012.5 |
| 20260507025924 | 47 | 234 | 10.0 | 19.0 | 0.00 | 0.02 | 0.00 | 80 | 1012.4 |
| 20260507025623 | 47 | 230 | 12.0 | 19.0 | 0.00 | 0.02 | 0.00 | 80 | 1012.4 |
| 20260507025319 | 47 | 238 | 10.0 | 19.0 | 0.00 | 0.02 | 0.00 | 80 | 1012.4 |
| 20260507025018 | 47 | 237 | 13.0 | 18.0 | 0.00 | 0.02 | 0.00 | 80 | 1012.4 |
| 20260507024717 | 47 | 233 | 11.0 | 17.0 | 0.00 | 0.02 | 0.00 | 81 | 1012.3 |
| 20260507024417 | 47 | 247 | 9.0 | 14.0 | 0.00 | 0.02 | 0.00 | 80 | 1012.3 |
| 20260507024116 | 47 | 236 | 10.0 | 14.0 | 0.00 | 0.02 | 0.00 | 81 | 1012.3 |
| 20260507023815 | 47 | 237 | 10.0 | 13.0 | 0.00 | 0.02 | 0.00 | 81 | 1012.3 |
| 20260507023514 | 47 | 233 | 8.0 | 12.0 | 0.00 | 0.02 | 0.00 | 81 | 1012.3 |
| 20260507023213 | 47 | 232 | 7.0 | 12.0 | 0.00 | 0.02 | 0.00 | 82 | 1012.3 |
| 20260507022912 | 46 | 230 | 8.0 | 11.0 | 0.00 | 0.02 | 0.00 | 82 | 1012.4 |
| 20260507022611 | 46 | 236 | 7.0 | 9.0 | 0.00 | 0.02 | 0.00 | 82 | 1012.4 |
| 20260507022310 | 46 | 232 | 6.0 | 8.0 | 0.00 | 0.02 | 0.00 | 82 | 1012.4 |
| 20260507022010 | 46 | 228 | 6.0 | 8.0 | 0.00 | 0.02 | 0.00 | 82 | 1012.4 |
| 20260507021709 | 46 | 224 | 5.0 | 8.0 | 0.00 | 0.02 | 0.00 | 82 | 1012.3 |
| 20260507021408 | 46 | 224 | 7.0 | 9.0 | 0.00 | 0.02 | 0.00 | 82 | 1012.2 |
| 20260507021107 | 46 | 226 | 6.0 | 10.0 | 0.00 | 0.02 | 0.00 | 82 | 1012.3 |
| 20260507020806 | 46 | 228 | 6.0 | 10.0 | 0.00 | 0.02 | 0.00 | 82 | 1012.3 |
| 20260507020505 | 46 | 230 | 6.0 | 10.0 | 0.00 | 0.02 | 0.00 | 83 | 1012.3 |
| 20260507020204 | 46 | 229 | 6.0 | 9.0 | 0.00 | 0.02 | 0.00 | 83 | 1012.3 |
| 20260507015903 | 45 | 229 | 6.0 | 12.0 | 0.00 | 0.02 | 0.00 | 82 | 1012.3 |
| 20260507015602 | 45 | 231 | 6.0 | 12.0 | 0.00 | 0.02 | 0.00 | 82 | 1012.3 |
| 20260507015305 | 45 | 228 | 5.0 | 12.0 | 0.00 | 0.02 | 0.00 | 82 | 1012.2 |
| 20260507015000 | 46 | 225 | 6.0 | 9.0 | 0.00 | 0.02 | 0.00 | 81 | 1012.3 |
| 20260507014700 | 46 | 231 | 6.0 | 9.0 | 0.00 | 0.02 | 0.00 | 81 | 1012.2 |
| 20260507014359 | 46 | 237 | 7.0 | 9.0 | 0.00 | 0.02 | 0.00 | 81 | 1012.3 |
| 20260507014058 | 46 | 239 | 6.0 | 9.0 | 0.00 | 0.02 | 0.00 | 81 | 1012.2 |
| 20260507013757 | 46 | 233 | 6.0 | 9.0 | 0.00 | 0.02 | 0.00 | 81 | 1012.2 |
| 20260507013456 | 46 | 239 | 6.0 | 10.0 | 0.00 | 0.02 | 0.00 | 81 | 1012.1 |
| 20260507013155 | 46 | 238 | 6.0 | 10.0 | 0.00 | 0.02 | 0.00 | 80 | 1012.1 |
| 20260507012854 | 46 | 235 | 7.0 | 11.0 | 0.00 | 0.02 | 0.00 | 81 | 1012.1 |
| 20260507012554 | 46 | 237 | 8.0 | 11.0 | 0.00 | 0.02 | 0.00 | 81 | 1012.0 |
| 20260507012253 | 46 | 233 | 8.0 | 11.0 | 0.00 | 0.02 | 0.00 | 80 | 1012.1 |
| 20260507011952 | 46 | 236 | 8.0 | 11.0 | 0.00 | 0.02 | 0.00 | 80 | 1012.0 |
| 20260507011651 | 46 | 236 | 9.0 | 12.0 | 0.00 | 0.02 | 0.00 | 80 | 1012.0 |
| 20260507011350 | 46 | 232 | 8.0 | 12.0 | 0.00 | 0.02 | 0.00 | 80 | 1012.1 |
| 20260507011049 | 46 | 230 | 8.0 | 12.0 | 0.00 | 0.02 | 0.00 | 80 | 1012.1 |
| 20260507010749 | 46 | 233 | 8.0 | 10.0 | 0.00 | 0.02 | 0.00 | 79 | 1012.1 |
| 20260507010448 | 46 | 234 | 8.0 | 11.0 | 0.00 | 0.02 | 0.00 | 80 | 1012.1 |
| 20260507010147 | 46 | 233 | 8.0 | 11.0 | 0.00 | 0.02 | 0.00 | 80 | 1012.1 |
| 20260507005846 | 46 | 225 | 9.0 | 11.0 | 0.00 | 0.02 | 0.00 | 80 | 1012.1 |
| 20260507005545 | 46 | 225 | 8.0 | 10.0 | 0.00 | 0.02 | 0.00 | 79 | 1012.1 |
| 20260507005244 | 46 | 226 | 8.0 | 10.0 | 0.00 | 0.02 | 0.00 | 79 | 1012.2 |
| 20260507004944 | 46 | 225 | 7.0 | 10.0 | 0.00 | 0.02 | 0.00 | 79 | 1012.2 |
| 20260507004643 | 46 | 225 | 8.0 | 11.0 | 0.00 | 0.02 | 0.00 | 79 | 1012.2 |
| 20260507004342 | 46 | 225 | 7.0 | 11.0 | 0.00 | 0.02 | 0.00 | 79 | 1012.2 |
| 20260507004041 | 46 | 226 | 8.0 | 12.0 | 0.00 | 0.02 | 0.00 | 80 | 1012.1 |
| 20260507003740 | 47 | 228 | 9.0 | 13.0 | 0.00 | 0.02 | 0.00 | 80 | 1012.1 |
| 20260507003439 | 47 | 230 | 9.0 | 13.0 | 0.00 | 0.02 | 0.00 | 80 | 1012.2 |
| 20260507003138 | 47 | 230 | 9.0 | 13.0 | 0.00 | 0.02 | 0.00 | 80 | 1012.1 |
| 20260507002837 | 47 | 225 | 9.0 | 14.0 | 0.00 | 0.02 | 0.00 | 80 | 1012.1 |
| 20260507002534 | 47 | 227 | 10.0 | 14.0 | 0.00 | 0.02 | 0.00 | 80 | 1012.2 |
| 20260507002233 | 47 | 226 | 9.0 | 14.0 | 0.00 | 0.02 | 0.00 | 80 | 1012.1 |
| 20260507001932 | 47 | 227 | 9.0 | 12.0 | 0.00 | 0.02 | 0.00 | 79 | 1012.2 |
| 20260507001631 | 47 | 227 | 8.0 | 12.0 | 0.00 | 0.02 | 0.00 | 79 | 1012.2 |
| 20260507001330 | 47 | 226 | 9.0 | 12.0 | 0.00 | 0.02 | 0.00 | 79 | 1012.1 |
| 20260507001029 | 47 | 228 | 8.0 | 12.0 | 0.00 | 0.02 | 0.00 | 79 | 1012.1 |
| 20260507000728 | 48 | 227 | 9.0 | 12.0 | 0.00 | 0.02 | 0.00 | 79 | 1012.1 |
| 20260507000428 | 48 | 230 | 8.0 | 12.0 | 0.00 | 0.02 | 0.00 | 79 | 1012.2 |
| 20260507000127 | 48 | 227 | 7.0 | 11.0 | 0.00 | 0.02 | 0.00 | 78 | 1012.1 |
| 20260506235826 | 48 | 228 | 8.0 | 11.0 | 0.00 | 0.02 | 0.00 | 78 | 1012.1 |
| 20260506235525 | 48 | 229 | 9.0 | 11.0 | 0.00 | 0.02 | 0.00 | 78 | 1012.2 |
| 20260506235224 | 48 | 226 | 7.0 | 9.0 | 0.00 | 0.02 | 0.00 | 78 | 1012.2 |
| 20260506234923 | 48 | 237 | 7.0 | 10.0 | 0.00 | 0.02 | 0.00 | 78 | 1012.2 |
| 20260506234623 | 48 | 237 | 6.0 | 10.0 | 0.00 | 0.02 | 0.00 | 78 | 1012.3 |
| 20260506234322 | 48 | 229 | 7.0 | 10.0 | 0.00 | 0.02 | 0.00 | 78 | 1012.2 |
| 20260506234021 | 48 | 230 | 7.0 | 9.0 | 0.00 | 0.02 | 0.00 | 78 | 1012.2 |
| 20260506233720 | 48 | 228 | 7.0 | 9.0 | 0.00 | 0.02 | 0.00 | 78 | 1012.2 |
| 20260506233419 | 48 | 226 | 7.0 | 9.0 | 0.00 | 0.02 | 0.00 | 78 | 1012.3 |
| 20260506233118 | 48 | 229 | 7.0 | 9.0 | 0.00 | 0.02 | 0.00 | 78 | 1012.3 |
| 20260506232817 | 48 | 237 | 6.0 | 11.0 | 0.00 | 0.02 | 0.00 | 78 | 1012.2 |
| 20260506232516 | 48 | 233 | 7.0 | 11.0 | 0.00 | 0.02 | 0.00 | 77 | 1012.2 |
| 20260506232216 | 48 | 238 | 6.0 | 11.0 | 0.00 | 0.02 | 0.00 | 77 | 1012.2 |
| 20260506231912 | 48 | 242 | 7.0 | 11.0 | 0.00 | 0.02 | 0.00 | 77 | 1012.1 |
| 20260506231611 | 48 | 244 | 7.0 | 11.0 | 0.00 | 0.02 | 0.00 | 77 | 1012.2 |
| 20260506231310 | 48 | 248 | 6.0 | 9.0 | 0.00 | 0.02 | 0.00 | 77 | 1012.0 |
| 20260506231009 | 48 | 257 | 6.0 | 14.0 | 0.00 | 0.02 | 0.00 | 77 | 1012.0 |
| 20260506230708 | 49 | 240 | 6.0 | 14.0 | 0.00 | 0.02 | 0.00 | 77 | 1012.0 |
| 20260506230407 | 49 | 247 | 8.0 | 14.0 | 0.00 | 0.02 | 0.00 | 77 | 1012.0 |
| 20260506230106 | 49 | 234 | 8.0 | 12.0 | 0.00 | 0.02 | 0.00 | 77 | 1011.9 |
| 20260506225806 | 49 | 245 | 8.0 | 13.0 | 0.00 | 0.02 | 0.00 | 77 | 1011.9 |
| 20260506225505 | 49 | 245 | 8.0 | 13.0 | 0.00 | 0.02 | 0.00 | 77 | 1012.0 |
| 20260506225204 | 49 | 236 | 10.0 | 13.0 | 0.00 | 0.02 | 0.00 | 77 | 1011.9 |
| 20260506224903 | 49 | 239 | 10.0 | 13.0 | 0.00 | 0.02 | 0.00 | 77 | 1011.9 |
| 20260506224602 | 49 | 242 | 9.0 | 14.0 | 0.00 | 0.02 | 0.00 | 77 | 1011.9 |
| 20260506224301 | 49 | 236 | 9.0 | 14.0 | 0.00 | 0.02 | 0.00 | 77 | 1011.9 |
| 20260506224001 | 49 | 236 | 10.0 | 14.0 | 0.00 | 0.02 | 0.00 | 76 | 1011.9 |
| 20260506223700 | 49 | 238 | 10.0 | 14.0 | 0.00 | 0.02 | 0.00 | 76 | 1011.9 |
| 20260506223359 | 49 | 243 | 10.0 | 17.0 | 0.00 | 0.02 | 0.00 | 76 | 1011.8 |
| 20260506223058 | 49 | 239 | 10.0 | 19.0 | 0.00 | 0.02 | 0.00 | 76 | 1011.9 |
| 20260506222757 | 49 | 231 | 10.0 | 19.0 | 0.00 | 0.02 | 0.00 | 76 | 1011.8 |
| 20260506222456 | 49 | 244 | 10.0 | 19.0 | 0.00 | 0.02 | 0.00 | 75 | 1011.8 |
| 20260506222155 | 49 | 237 | 11.0 | 15.0 | 0.00 | 0.02 | 0.00 | 75 | 1011.9 |
| 20260506221855 | 49 | 231 | 10.0 | 16.0 | 0.00 | 0.02 | 0.00 | 75 | 1011.8 |
| 20260506221554 | 49 | 237 | 9.0 | 16.0 | 0.00 | 0.02 | 0.00 | 75 | 1011.8 |
| 20260506221253 | 49 | 240 | 10.0 | 18.0 | 0.00 | 0.02 | 0.00 | 75 | 1011.8 |
| 20260506220952 | 49 | 235 | 11.0 | 18.0 | 0.00 | 0.02 | 0.00 | 76 | 1011.7 |
| 20260506220651 | 49 | 235 | 13.0 | 18.0 | 0.00 | 0.02 | 0.00 | 75 | 1011.7 |
| 20260506220350 | 49 | 233 | 10.0 | 17.0 | 0.00 | 0.02 | 0.00 | 76 | 1011.8 |
| 20260506220049 | 49 | 230 | 12.0 | 18.0 | 0.00 | 0.02 | 0.00 | 76 | 1011.7 |
| 20260506215748 | 49 | 235 | 10.0 | 18.0 | 0.00 | 0.02 | 0.00 | 76 | 1011.7 |
| 20260506215445 | 49 | 240 | 10.0 | 18.0 | 0.00 | 0.02 | 0.00 | 76 | 1011.6 |
| 20260506215144 | 49 | 234 | 11.0 | 17.0 | 0.00 | 0.02 | 0.00 | 76 | 1011.6 |
| 20260506214843 | 49 | 239 | 11.0 | 17.0 | 0.00 | 0.02 | 0.00 | 77 | 1011.6 |
| 20260506214542 | 49 | 229 | 12.0 | 17.0 | 0.00 | 0.02 | 0.00 | 77 | 1011.6 |
| 20260506214241 | 49 | 230 | 12.0 | 17.0 | 0.00 | 0.02 | 0.00 | 77 | 1011.7 |
| 20260506213940 | 49 | 228 | 11.0 | 15.0 | 0.00 | 0.02 | 0.00 | 77 | 1011.6 |
| 20260506213639 | 49 | 231 | 11.0 | 15.0 | 0.00 | 0.02 | 0.00 | 78 | 1011.7 |
| 20260506213339 | 49 | 230 | 11.0 | 15.0 | 0.00 | 0.02 | 0.00 | 77 | 1011.6 |
| 20260506213038 | 49 | 229 | 10.0 | 16.0 | 0.00 | 0.02 | 0.00 | 77 | 1011.6 |
| 20260506212737 | 49 | 235 | 9.0 | 17.0 | 0.01 | 0.02 | 0.00 | 77 | 1011.6 |
| 20260506212436 | 49 | 233 | 11.0 | 17.0 | 0.01 | 0.02 | 0.00 | 77 | 1011.6 |
| 20260506212135 | 49 | 232 | 11.0 | 18.0 | 0.01 | 0.02 | 0.00 | 77 | 1011.5 |
| 20260506211834 | 49 | 232 | 11.0 | 18.0 | 0.01 | 0.02 | 0.00 | 76 | 1011.6 |
| 20260506211533 | 49 | 240 | 14.0 | 18.0 | 0.01 | 0.02 | 0.00 | 76 | 1011.4 |
| 20260506211232 | 49 | 236 | 12.0 | 18.0 | 0.01 | 0.02 | 0.00 | 76 | 1011.5 |
| 20260506210931 | 49 | 231 | 12.0 | 18.0 | 0.01 | 0.02 | 0.00 | 76 | 1011.5 |
| 20260506210631 | 49 | 234 | 11.0 | 17.0 | 0.01 | 0.02 | 0.00 | 75 | 1011.6 |
| 20260506210330 | 49 | 231 | 11.0 | 17.0 | 0.01 | 0.02 | 0.00 | 75 | 1011.6 |
| 20260506210029 | 50 | 231 | 10.0 | 17.0 | 0.01 | 0.02 | 0.00 | 75 | 1011.4 |
| 20260506205728 | 50 | 242 | 9.0 | 15.0 | 0.01 | 0.02 | 0.00 | 75 | 1011.4 |
| 20260506204825 | 49 | 241 | 9.0 | 20.0 | 0.01 | 0.02 | 0.00 | 74 | 1011.5 |
| 20260506204524 | 49 | 237 | 10.0 | 20.0 | 0.01 | 0.02 | 0.00 | 74 | 1011.3 |
| 20260506204224 | 49 | 245 | 11.0 | 20.0 | 0.00 | 0.01 | 0.00 | 74 | 1011.4 |
| 20260506203923 | 49 | 235 | 10.0 | 17.0 | 0.00 | 0.01 | 0.00 | 74 | 1011.4 |
| 20260506203622 | 49 | 241 | 10.0 | 17.0 | 0.00 | 0.01 | 0.00 | 73 | 1011.4 |
| 20260506203321 | 49 | 230 | 12.0 | 17.0 | 0.00 | 0.01 | 0.00 | 73 | 1011.2 |
| 20260506203020 | 50 | 232 | 10.0 | 15.0 | 0.00 | 0.01 | 0.00 | 72 | 1011.2 |
| 20260506202719 | 50 | 238 | 10.0 | 15.0 | 0.00 | 0.01 | 0.00 | 72 | 1011.1 |
| 20260506202418 | 51 | 238 | 10.0 | 15.0 | 0.00 | 0.01 | 0.00 | 70 | 1011.1 |
| 20260506202117 | 51 | 250 | 8.0 | 13.0 | 0.00 | 0.01 | 0.00 | 71 | 1011.1 |
| 20260506201817 | 50 | 246 | 10.0 | 13.0 | 0.00 | 0.01 | 0.00 | 74 | 1011.1 |
| 20260506201516 | 49 | 241 | 8.0 | 13.0 | 0.00 | 0.01 | 0.00 | 74 | 1011.0 |
| 20260506201215 | 49 | 238 | 9.0 | 13.0 | 0.00 | 0.01 | 0.00 | 74 | 1011.0 |
| 20260506200914 | 49 | 236 | 9.0 | 14.0 | 0.00 | 0.01 | 0.00 | 75 | 1011.0 |
| 20260506200613 | 49 | 234 | 9.0 | 17.0 | 0.00 | 0.01 | 0.00 | 74 | 1010.9 |
| 20260506200312 | 50 | 237 | 10.0 | 17.0 | 0.00 | 0.01 | 0.00 | 74 | 1010.9 |
| 20260506200011 | 50 | 235 | 10.0 | 17.0 | 0.00 | 0.01 | 0.00 | 74 | 1010.9 |
| 20260506195710 | 50 | 236 | 10.0 | 15.0 | 0.00 | 0.01 | 0.00 | 74 | 1010.9 |
| 20260506195410 | 50 | 230 | 11.0 | 16.0 | 0.00 | 0.01 | 0.00 | 73 | 1010.9 |
| 20260506195109 | 50 | 239 | 10.0 | 20.0 | 0.00 | 0.01 | 0.00 | 73 | 1011.0 |
| 20260506194808 | 50 | 238 | 10.0 | 20.0 | 0.00 | 0.01 | 0.00 | 73 | 1011.1 |
| 20260506194507 | 50 | 241 | 13.0 | 20.0 | 0.00 | 0.01 | 0.00 | 73 | 1010.9 |
| 20260506194206 | 50 | 241 | 12.0 | 19.0 | 0.00 | 0.01 | 0.00 | 73 | 1010.9 |
| 20260506193905 | 50 | 232 | 10.0 | 17.0 | 0.00 | 0.01 | 0.00 | 72 | 1010.9 |
| 20260506193604 | 50 | 241 | 12.0 | 17.0 | 0.00 | 0.01 | 0.00 | 72 | 1010.9 |
| 20260506193303 | 50 | 236 | 11.0 | 17.0 | 0.00 | 0.01 | 0.00 | 72 | 1010.8 |
| 20260506193003 | 50 | 234 | 11.0 | 17.0 | 0.00 | 0.01 | 0.00 | 72 | 1010.7 |
| 20260506192702 | 51 | 244 | 11.0 | 17.0 | 0.01 | 0.01 | 0.00 | 72 | 1010.6 |
| 20260506192401 | 51 | 235 | 13.0 | 18.0 | 0.01 | 0.01 | 0.00 | 71 | 1010.7 |
| 20260506192100 | 51 | 235 | 13.0 | 18.0 | 0.01 | 0.01 | 0.00 | 71 | 1010.6 |
| 20260506191759 | 51 | 232 | 13.0 | 18.0 | 0.01 | 0.01 | 0.00 | 71 | 1010.8 |
| 20260506191458 | 51 | 233 | 13.0 | 18.0 | 0.01 | 0.01 | 0.00 | 71 | 1010.8 |
| 20260506191157 | 51 | 236 | 13.0 | 17.0 | 0.01 | 0.01 | 0.00 | 70 | 1010.7 |
| 20260506190857 | 51 | 236 | 13.0 | 17.0 | 0.01 | 0.01 | 0.00 | 70 | 1010.6 |
| 20260506190556 | 51 | 238 | 11.0 | 16.0 | 0.01 | 0.01 | 0.00 | 70 | 1010.6 |
| 20260506190255 | 51 | 233 | 10.0 | 16.0 | 0.01 | 0.01 | 0.00 | 70 | 1010.7 |
| 20260506185954 | 51 | 238 | 9.0 | 16.0 | 0.01 | 0.01 | 0.00 | 71 | 1010.4 |
| 20260506185653 | 51 | 238 | 10.0 | 15.0 | 0.01 | 0.01 | 0.00 | 70 | 1010.6 |
| 20260506185352 | 51 | 240 | 10.0 | 17.0 | 0.01 | 0.01 | 0.00 | 70 | 1010.5 |
| 20260506185051 | 51 | 241 | 10.0 | 17.0 | 0.01 | 0.01 | 0.00 | 70 | 1010.5 |
| 20260506184750 | 51 | 241 | 11.0 | 19.0 | 0.01 | 0.01 | 0.00 | 69 | 1010.5 |
| 20260506184449 | 52 | 233 | 11.0 | 21.0 | 0.01 | 0.01 | 0.00 | 69 | 1010.5 |
| 20260506184148 | 52 | 240 | 13.0 | 21.0 | 0.01 | 0.01 | 0.00 | 69 | 1010.4 |
| 20260506183847 | 52 | 241 | 13.0 | 21.0 | 0.01 | 0.01 | 0.00 | 69 | 1010.4 |
| 20260506183546 | 52 | 240 | 12.0 | 20.0 | 0.00 | 0.00 | 0.00 | 68 | 1010.5 |
| 20260506183245 | 52 | 231 | 15.0 | 20.0 | 0.00 | 0.00 | 0.00 | 68 | 1010.4 |
| 20260506182943 | 52 | 270 | 0.0 | 13.0 | 0.00 | 0.00 | 0.00 | 68 | 1010.4 |
| 20260506182757 | 52 | 237 | 16.0 | 24.0 | 0.00 | 0.04 | 0.00 | 68 | 1010.4 |
| 20260506182456 | 52 | 236 | 17.0 | 22.0 | 0.00 | 0.04 | 0.00 | 68 | 1010.4 |
| 20260506182155 | 52 | 234 | 15.0 | 24.0 | 0.00 | 0.04 | 0.00 | 68 | 1010.3 |
| 20260506181854 | 52 | 233 | 16.0 | 25.0 | 0.00 | 0.04 | 0.00 | 68 | 1010.3 |
| 20260506181554 | 52 | 228 | 15.0 | 25.0 | 0.00 | 0.04 | 0.00 | 67 | 1010.2 |
| 20260506181253 | 52 | 229 | 20.0 | 25.0 | 0.00 | 0.04 | 0.00 | 67 | 1010.1 |
| 20260506180952 | 52 | 231 | 17.0 | 23.0 | 0.00 | 0.04 | 0.00 | 67 | 1010.1 |
| 20260506180651 | 53 | 233 | 17.0 | 21.0 | 0.00 | 0.04 | 0.00 | 66 | 1010.0 |
| 20260506180350 | 53 | 232 | 12.0 | 22.0 | 0.00 | 0.04 | 0.00 | 67 | 1010.0 |
| 20260506180049 | 53 | 235 | 12.0 | 22.0 | 0.00 | 0.04 | 0.00 | 67 | 1010.0 |
| 20260506175749 | 52 | 231 | 15.0 | 23.0 | 0.00 | 0.04 | 0.00 | 68 | 1010.0 |
| 20260506175448 | 52 | 229 | 15.0 | 23.0 | 0.00 | 0.04 | 0.00 | 69 | 1009.9 |
| 20260506175147 | 52 | 226 | 18.0 | 23.0 | 0.00 | 0.04 | 0.00 | 68 | 1009.9 |
| 20260506174846 | 53 | 231 | 16.0 | 23.0 | 0.00 | 0.04 | 0.00 | 68 | 1009.9 |
| 20260506174545 | 53 | 228 | 15.0 | 22.0 | 0.00 | 0.04 | 0.00 | 67 | 1009.8 |
| 20260506174244 | 53 | 233 | 16.0 | 22.0 | 0.00 | 0.04 | 0.00 | 67 | 1009.7 |
| 20260506173943 | 53 | 230 | 13.0 | 22.0 | 0.00 | 0.04 | 0.00 | 67 | 1009.6 |
| 20260506173642 | 53 | 234 | 15.0 | 22.0 | 0.00 | 0.04 | 0.00 | 65 | 1009.5 |
| 20260506173342 | 53 | 234 | 13.0 | 24.0 | 0.00 | 0.04 | 0.00 | 66 | 1009.4 |
| 20260506173041 | 53 | 239 | 16.0 | 30.0 | 0.00 | 0.04 | 0.00 | 65 | 1009.2 |
| 20260506172740 | 53 | 248 | 18.0 | 30.0 | 0.00 | 0.04 | 0.00 | 65 | 1009.1 |
| 20260506172439 | 53 | 247 | 19.0 | 30.0 | 0.00 | 0.04 | 0.00 | 65 | 1009.0 |
| 20260506172138 | 53 | 252 | 18.0 | 28.0 | 0.00 | 0.04 | 0.00 | 65 | 1008.8 |
| 20260506171837 | 53 | 256 | 18.0 | 27.0 | 0.00 | 0.04 | 0.00 | 66 | 1008.8 |
| 20260506171536 | 53 | 252 | 19.0 | 29.0 | 0.00 | 0.04 | 0.00 | 65 | 1008.7 |
| 20260506171236 | 53 | 242 | 17.0 | 30.0 | 0.00 | 0.04 | 0.00 | 66 | 1008.7 |
| 20260506170935 | 53 | 249 | 18.0 | 30.0 | 0.00 | 0.04 | 0.00 | 65 | 1008.6 |
| 20260506170634 | 54 | 262 | 20.0 | 30.0 | 0.00 | 0.04 | 0.00 | 64 | 1008.6 |
| 20260506170333 | 54 | 258 | 20.0 | 29.0 | 0.00 | 0.04 | 0.00 | 65 | 1008.6 |
| 20260506170032 | 54 | 244 | 18.0 | 26.0 | 0.00 | 0.04 | 0.00 | 65 | 1008.7 |
| 20260506165731 | 54 | 250 | 16.0 | 30.0 | 0.00 | 0.04 | 0.00 | 65 | 1008.7 |
| 20260506165430 | 54 | 253 | 18.0 | 30.0 | 0.00 | 0.04 | 0.00 | 65 | 1008.7 |
| 20260506165129 | 54 | 255 | 20.0 | 31.0 | 0.00 | 0.04 | 0.00 | 65 | 1008.7 |
| 20260506164828 | 54 | 261 | 18.0 | 34.0 | 0.00 | 0.04 | 0.00 | 65 | 1008.5 |
| 20260506164527 | 54 | 264 | 22.0 | 34.0 | 0.00 | 0.04 | 0.00 | 64 | 1008.7 |
| 20260506164227 | 55 | 257 | 23.0 | 34.0 | 0.00 | 0.04 | 0.00 | 64 | 1008.4 |
| 20260506163926 | 55 | 245 | 20.0 | 33.0 | 0.00 | 0.04 | 0.00 | 65 | 1008.5 |
| 20260506163625 | 55 | 255 | 16.0 | 33.0 | 0.00 | 0.04 | 0.00 | 66 | 1008.6 |
| 20260506163324 | 55 | 235 | 21.0 | 33.0 | 0.00 | 0.04 | 0.00 | 67 | 1008.5 |
| 20260506163023 | 55 | 228 | 19.0 | 26.0 | 0.00 | 0.04 | 0.00 | 70 | 1008.5 |
| 20260506162722 | 55 | 231 | 18.0 | 25.0 | 0.00 | 0.04 | 0.00 | 70 | 1008.5 |
| 20260506162421 | 55 | 235 | 12.0 | 24.0 | 0.00 | 0.04 | 0.00 | 70 | 1008.6 |
| 20260506162120 | 55 | 250 | 15.0 | 24.0 | 0.00 | 0.04 | 0.00 | 70 | 1008.5 |
| 20260506161819 | 55 | 232 | 18.0 | 24.0 | 0.00 | 0.04 | 0.00 | 70 | 1008.4 |
| 20260506161518 | 55 | 251 | 15.0 | 25.0 | 0.00 | 0.04 | 0.00 | 70 | 1008.4 |
| 20260506161217 | 55 | 262 | 15.0 | 32.0 | 0.00 | 0.04 | 0.00 | 70 | 1008.2 |
| 20260506160916 | 55 | 249 | 16.0 | 32.0 | 0.00 | 0.04 | 0.00 | 70 | 1008.1 |
| 20260506160616 | 55 | 238 | 21.0 | 32.0 | 0.00 | 0.04 | 0.00 | 69 | 1008.0 |
| 20260506160315 | 56 | 244 | 20.0 | 30.0 | 0.00 | 0.04 | 0.00 | 67 | 1008.1 |
| 20260506160014 | 56 | 248 | 20.0 | 31.0 | 0.01 | 0.04 | 0.00 | 67 | 1007.9 |
| 20260506155713 | 57 | 252 | 19.0 | 33.0 | 0.01 | 0.04 | 0.00 | 66 | 1008.1 |
| 20260506155412 | 57 | 247 | 20.0 | 34.0 | 0.01 | 0.04 | 0.00 | 65 | 1008.0 |
| 20260506155111 | 57 | 242 | 24.0 | 34.0 | 0.01 | 0.04 | 0.00 | 64 | 1008.1 |
| 20260506154810 | 58 | 232 | 24.0 | 34.0 | 0.00 | 0.03 | 0.00 | 64 | 1008.1 |
| 20260506154509 | 59 | 237 | 21.0 | 34.0 | 0.00 | 0.03 | 0.00 | 63 | 1007.9 |
| 20260506154209 | 61 | 232 | 23.0 | 34.0 | 0.00 | 0.03 | 0.00 | 61 | 1007.9 |
| 20260506153908 | 62 | 225 | 13.0 | 20.0 | 0.00 | 0.03 | 0.00 | 64 | 1007.4 |
| 20260506153607 | 62 | 223 | 15.0 | 20.0 | 0.00 | 0.03 | 0.00 | 63 | 1007.2 |
| 20260506153306 | 62 | 225 | 17.0 | 20.0 | 0.00 | 0.03 | 0.00 | 61 | 1007.1 |
| 20260506153005 | 63 | 221 | 12.0 | 18.0 | 0.00 | 0.03 | 0.00 | 61 | 1007.0 |
| 20260506152704 | 63 | 207 | 12.0 | 18.0 | 0.00 | 0.03 | 0.00 | 61 | 1006.9 |
| 20260506152403 | 63 | 217 | 12.0 | 18.0 | 0.00 | 0.03 | 0.00 | 61 | 1006.8 |
| 20260506152102 | 63 | 216 | 13.0 | 18.0 | 0.00 | 0.03 | 0.00 | 59 | 1006.6 |
| 20260506151801 | 63 | 213 | 12.0 | 18.0 | 0.00 | 0.03 | 0.00 | 59 | 1006.6 |
| 20260506151500 | 63 | 217 | 11.0 | 18.0 | 0.00 | 0.03 | 0.00 | 58 | 1006.6 |
| 20260506151159 | 63 | 215 | 11.0 | 18.0 | 0.00 | 0.03 | 0.00 | 58 | 1006.5 |
| 20260506150858 | 63 | 216 | 11.0 | 17.0 | 0.00 | 0.03 | 0.00 | 56 | 1006.6 |
| 20260506150557 | 63 | 212 | 10.0 | 17.0 | 0.00 | 0.03 | 0.00 | 58 | 1006.6 |
| 20260506150303 | 63 | 211 | 11.0 | 15.0 | 0.00 | 0.03 | 0.00 | 57 | 1006.7 |
| 20260506145956 | 63 | 207 | 10.0 | 14.0 | 0.00 | 0.03 | 0.00 | 58 | 1006.6 |
| 20260506145655 | 63 | 212 | 9.0 | 14.0 | 0.00 | 0.03 | 0.00 | 60 | 1006.9 |
| 20260506145354 | 63 | 215 | 7.0 | 12.0 | 0.00 | 0.03 | 0.00 | 58 | 1006.7 |
| 20260506145053 | 63 | 206 | 6.0 | 12.0 | 0.00 | 0.03 | 0.00 | 57 | 1006.7 |
| 20260506144752 | 63 | 202 | 6.0 | 12.0 | 0.00 | 0.03 | 0.00 | 58 | 1006.6 |
| 20260506144451 | 63 | 221 | 8.0 | 12.0 | 0.00 | 0.03 | 0.00 | 58 | 1006.7 |
| 20260506144151 | 63 | 210 | 8.0 | 11.0 | 0.00 | 0.03 | 0.00 | 59 | 1006.7 |
| 20260506143850 | 63 | 227 | 7.0 | 9.0 | 0.00 | 0.03 | 0.00 | 59 | 1006.8 |
| 20260506143549 | 63 | 216 | 5.0 | 9.0 | 0.00 | 0.03 | 0.00 | 59 | 1006.7 |
| 20260506143248 | 63 | 181 | 3.0 | 8.0 | 0.00 | 0.03 | 0.00 | 64 | 1006.7 |
| 20260506142947 | 62 | 210 | 4.0 | 9.0 | 0.00 | 0.03 | 0.00 | 65 | 1006.9 |
| 20260506142646 | 62 | 207 | 3.0 | 11.0 | 0.00 | 0.03 | 0.00 | 66 | 1007.0 |
| 20260506142345 | 62 | 213 | 6.0 | 12.0 | 0.00 | 0.03 | 0.00 | 66 | 1006.9 |
| 20260506142044 | 62 | 212 | 8.0 | 14.0 | 0.00 | 0.03 | 0.00 | 67 | 1007.0 |
| 20260506141744 | 62 | 208 | 7.0 | 16.0 | 0.00 | 0.03 | 0.00 | 68 | 1006.9 |
| 20260506141443 | 62 | 203 | 7.0 | 16.0 | 0.00 | 0.03 | 0.00 | 68 | 1007.0 |
| 20260506141142 | 62 | 210 | 10.0 | 16.0 | 0.00 | 0.03 | 0.00 | 69 | 1007.1 |
| 20260506140841 | 62 | 211 | 10.0 | 14.0 | 0.00 | 0.03 | 0.00 | 70 | 1007.1 |
| 20260506140540 | 61 | 223 | 9.0 | 12.0 | 0.00 | 0.03 | 0.00 | 72 | 1007.0 |
| 20260506140239 | 60 | 212 | 7.0 | 12.0 | 0.00 | 0.03 | 0.00 | 72 | 1007.0 |
| 20260506135939 | 60 | 219 | 8.0 | 12.0 | 0.02 | 0.03 | 0.00 | 71 | 1007.0 |
| 20260506135638 | 60 | 220 | 8.0 | 12.0 | 0.01 | 0.02 | 0.00 | 71 | 1007.1 |
| 20260506135337 | 59 | 214 | 7.0 | 13.0 | 0.01 | 0.02 | 0.00 | 72 | 1007.2 |
| 20260506135036 | 59 | 209 | 8.0 | 13.0 | 0.01 | 0.02 | 0.00 | 71 | 1007.3 |
| 20260506134735 | 59 | 211 | 7.0 | 13.0 | 0.01 | 0.02 | 0.00 | 71 | 1007.2 |
| 20260506134434 | 60 | 223 | 5.0 | 12.0 | 0.01 | 0.02 | 0.00 | 71 | 1007.2 |
| 20260506134133 | 60 | 223 | 3.0 | 12.0 | 0.00 | 0.01 | 0.00 | 72 | 1007.2 |
| 20260506133832 | 59 | 219 | 6.0 | 12.0 | 0.00 | 0.01 | 0.00 | 70 | 1007.2 |
| 20260506133531 | 60 | 167 | 4.0 | 13.0 | 0.00 | 0.01 | 0.00 | 68 | 1007.2 |
| 20260506133230 | 60 | 96 | 3.0 | 13.0 | 0.00 | 0.01 | 0.00 | 67 | 1007.0 |
| 20260506132929 | 61 | 200 | 6.0 | 13.0 | 0.00 | 0.01 | 0.00 | 66 | 1007.1 |
| 20260506132628 | 61 | 132 | 4.0 | 8.0 | 0.00 | 0.01 | 0.00 | 63 | 1007.0 |
| 20260506132328 | 61 | 218 | 4.0 | 7.0 | 0.00 | 0.01 | 0.00 | 64 | 1007.0 |
| 20260506132027 | 61 | 245 | 2.0 | 7.0 | 0.00 | 0.01 | 0.00 | 60 | 1007.0 |
| 20260506131726 | 60 | 292 | 2.0 | 7.0 | 0.00 | 0.01 | 0.00 | 60 | 1007.0 |
| 20260506131425 | 60 | 313 | 2.0 | 7.0 | 0.00 | 0.01 | 0.00 | 57 | 1006.9 |
| 20260506131124 | 61 | 311 | 4.0 | 7.0 | 0.00 | 0.01 | 0.00 | 58 | 1006.8 |
| 20260506130823 | 61 | 313 | 3.0 | 7.0 | 0.00 | 0.01 | 0.00 | 56 | 1006.6 |
| 20260506130522 | 61 | 307 | 4.0 | 7.0 | 0.00 | 0.01 | 0.00 | 56 | 1006.6 |
| 20260506130221 | 61 | 311 | 4.0 | 6.0 | 0.00 | 0.01 | 0.00 | 56 | 1006.6 |
| 20260506125920 | 62 | 311 | 3.0 | 6.0 | 0.00 | 0.00 | 0.00 | 55 | 1006.6 |
| 20260506125620 | 62 | 7 | 3.0 | 5.0 | 0.00 | 0.00 | 0.00 | 54 | 1006.5 |
| 20260506125319 | 62 | 51 | 3.0 | 6.0 | 0.00 | 0.00 | 0.00 | 53 | 1006.5 |
| 20260506125018 | 62 | 18 | 2.0 | 7.0 | 0.00 | 0.00 | 0.00 | 53 | 1006.5 |
| 20260506124717 | 62 | 39 | 4.0 | 8.0 | 0.00 | 0.00 | 0.00 | 52 | 1006.4 |
| 20260506124416 | 62 | 63 | 4.0 | 8.0 | 0.00 | 0.00 | 0.00 | 52 | 1006.5 |
| 20260506124115 | 63 | 67 | 4.0 | 8.0 | 0.00 | 0.00 | 0.00 | 51 | 1006.6 |
| 20260506123814 | 63 | 23 | 2.0 | 6.0 | 0.00 | 0.00 | 0.00 | 50 | 1006.6 |
| 20260506123513 | 63 | 9 | 1.0 | 6.0 | 0.00 | 0.00 | 0.00 | 50 | 1006.7 |
| 20260506123213 | 64 | 81 | 4.0 | 6.0 | 0.00 | 0.00 | 0.00 | 49 | 1006.7 |
| 20260506122912 | 64 | 76 | 3.0 | 7.0 | 0.00 | 0.00 | 0.00 | 51 | 1006.6 |
| 20260506122611 | 64 | 46 | 2.0 | 9.0 | 0.00 | 0.00 | 0.00 | 51 | 1006.7 |
| 20260506122310 | 64 | 87 | 4.0 | 9.0 | 0.00 | 0.00 | 0.00 | 51 | 1006.7 |
| 20260506122009 | 63 | 85 | 4.0 | 9.0 | 0.00 | 0.00 | 0.00 | 52 | 1006.8 |
| 20260506121708 | 63 | 6 | 2.0 | 6.0 | 0.00 | 0.00 | 0.00 | 52 | 1006.8 |
| 20260506121407 | 63 | 26 | 3.0 | 6.0 | 0.00 | 0.00 | 0.00 | 51 | 1006.6 |
| 20260506121106 | 63 | 25 | 2.0 | 10.0 | 0.00 | 0.00 | 0.00 | 51 | 1006.6 |
| 20260506120806 | 63 | 0 | 3.0 | 10.0 | 0.00 | 0.00 | 0.00 | 51 | 1006.7 |
| 20260506120505 | 63 | 30 | 5.0 | 10.0 | 0.00 | 0.00 | 0.00 | 52 | 1006.7 |
| 20260506120204 | 63 | 50 | 4.0 | 10.0 | 0.00 | 0.00 | 0.00 | 52 | 1006.5 |
| 20260506115903 | 63 | 61 | 5.0 | 10.0 | 0.00 | 0.02 | 0.00 | 51 | 1006.6 |
| 20260506115602 | 64 | 80 | 3.0 | 8.0 | 0.00 | 0.02 | 0.00 | 52 | 1006.6 |
| 20260506115301 | 64 | 48 | 4.0 | 8.0 | 0.00 | 0.02 | 0.00 | 50 | 1006.7 |
| 20260506115000 | 64 | 94 | 5.0 | 8.0 | 0.00 | 0.02 | 0.00 | 51 | 1006.8 |
| 20260506114659 | 64 | 68 | 3.0 | 6.0 | 0.00 | 0.02 | 0.00 | 50 | 1006.9 |
| 20260506114358 | 64 | 98 | 3.0 | 7.0 | 0.00 | 0.02 | 0.00 | 50 | 1006.8 |
| 20260506114057 | 65 | 70 | 3.0 | 9.0 | 0.00 | 0.02 | 0.00 | 49 | 1006.8 |
| 20260506113756 | 64 | 95 | 3.0 | 10.0 | 0.00 | 0.02 | 0.00 | 50 | 1006.9 |
| 20260506113455 | 63 | 73 | 3.0 | 10.0 | 0.00 | 0.02 | 0.00 | 51 | 1006.8 |
| 20260506113155 | 63 | 61 | 6.0 | 10.0 | 0.00 | 0.02 | 0.00 | 50 | 1006.9 |
| 20260506112854 | 64 | 80 | 5.0 | 9.0 | 0.00 | 0.02 | 0.00 | 50 | 1006.8 |
| 20260506112553 | 64 | 73 | 5.0 | 18.0 | 0.00 | 0.02 | 0.00 | 49 | 1006.9 |
| 20260506112252 | 64 | 101 | 3.0 | 18.0 | 0.00 | 0.02 | 0.00 | 51 | 1007.0 |
| 20260506111951 | 63 | 65 | 7.0 | 18.0 | 0.00 | 0.02 | 0.00 | 50 | 1006.8 |
| 20260506111650 | 63 | 80 | 5.0 | 10.0 | 0.00 | 0.02 | 0.00 | 49 | 1006.9 |
| 20260506111349 | 63 | 58 | 3.0 | 8.0 | 0.00 | 0.02 | 0.00 | 50 | 1006.9 |
| 20260506111048 | 63 | 54 | 4.0 | 9.0 | 0.00 | 0.02 | 0.00 | 48 | 1007.0 |
| 20260506110747 | 63 | 20 | 5.0 | 12.0 | 0.00 | 0.02 | 0.00 | 48 | 1007.1 |
| 20260506110447 | 63 | 38 | 5.0 | 12.0 | 0.00 | 0.02 | 0.00 | 49 | 1007.1 |
| 20260506110146 | 63 | 54 | 7.0 | 12.0 | 0.00 | 0.02 | 0.00 | 49 | 1007.0 |
| 20260506105845 | 65 | 53 | 7.0 | 11.0 | 0.00 | 0.02 | 0.00 | 46 | 1007.2 |
| 20260506105544 | 66 | 28 | 4.0 | 10.0 | 0.00 | 0.02 | 0.00 | 48 | 1007.2 |